Find Grifon-2

NORAD ID: 67269 Int'l Des: NNA 2025-313 Owner: NOVSU Country: RU operational
LEOCIRCULARRETROGRADESSO

Live Position

Loading 3D Globe...

About Grifon-2

Description loading...

Upcoming Passes

Passes for default location (London). Set your location on the main map for personalized predictions.

Altitude History

Loading altitude history...

Two-Line Element Set

1 67269U 25313X 26106.18216025 .00006407 00000-0 27213-3 0 9999
2 67269 97.3993 181.9605 0013885 213.7682 146.2672 15.23325480 16521
Epoch: Apr 16, 2026 • Age: 30 hours

Current Status

Altitude 508.4 km
Velocity 7.61 km/s
Sub-Earth Point 24.26°N, 177.81°E
Launch Date Dec 28, 2025
Age 0.3 years
Type other

Technical Details

Classification Payload
Mass 25.00 kg
Dry Mass 25.00 kg
Total Mass 25.00 kg
Length 0.40 m
Diameter 0.40 m
Span 0.40 m
Shape Box
Manufacturer NOVSU
Bus Type Cubesat 16U
Phase Status In Orbit
Owner/State NOVSU/RU

Most Searched